Tracking 19254 objects as of 20-Oct-2018
HD Live streaming from Space Station
objects crossing your sky now

FENGYUN 1C DEB

Track FENGYUN 1C DEB now!
10-day predictions


NORAD ID: 38138
Int'l Code: 1999-025EQK
Perigee: 810.5 km
Apogee: 884.2 km
Inclination: 98.9 °
Period: 101.7 minutes
Semi major axis: 7218 km
RCS: 0.0022 m2 (small)
Launch date: May 10, 1999
Source: People's Republic of China (PRC)
Launch site: Taiyaun Space Center, China (TSC)

Note: This is SATELLITE DEBRIS
aabbcc
Your satellite tracking list
Your tracking list is empty




NASA's NSSDC Master Catalog

Two Line Element Set (TLE):
1 38138U 99025EQK 18292.35332023 +.00000804 +00000-0 +42820-3 0  9992
2 38138 098.9319 345.5053 0051045 271.3425 088.1901 14.15625773267203
Source of the keplerian elements: AFSPC